Content
SEND FEEDBACK

Daily
Averages
Monthly
Summary
United States of America

ST. LOUIS - SAINT LOUIS UNIVERSITY, MISSOURI


Home > North America > United States > Missouri
Elevation: 177 meters     Latitude: 38 38N     Longitude: 090 14W

WEATHER
 
SELECT A DAY
Number of Records: 186,559;   Date Range: 1/1/95 - 9/22/14
 
SHARE

PRINT THIS DATA

[ ← Previous Day ]
WEATHER ALMANAC - 10 MAY, 2013
[ Next Day → ]
[ °F ]   °C
Weather ElementAverageHighLow
Temperature17.1 °C20 °C (1:32 pm)13.3 °C (11:53 pm)
Dewpoint13.5 °C16 °C (1:26 am)9.4 °C (10:53 pm)
Humidity79.8 %93 % (3:53 am)68 % (1:32 pm)
Barometer1013.2 hPa1016.3 hPa (11:53 pm)1010.5 hPa (2:53 am)
Wind Speed15.8 km/h29.6 km/h (4:37 pm)
Wind Gust38.9 km/h (3:53 pm)
Weather ElementAverage
Visibility15.6 km
Wind DirectionWNW (291.3 °)

Weather ElementTotal
Precipitation4.83 mm
Heating Degree Days1.7 (Base 18.3)
Growing Degree Days6.7 (Base 10)
Averaged from 30 records on 10 May, 2013
WEATHER CONDITIONS BREAKOUT
WIND DIRECTION BREAKOUT
WEATHER BY HOUR - 10 MAY, 2013
[ °F ]   °C
Local TimeTemperatureDewpointHumidityBarometerVisibilityWind DirectionWind SpeedGust SpeedPrecipitationEventsConditions
1:26 AM18 °C16 °C88 %1013.2 hPa16.1 kmVariable11.1 km/h25.9 km/h0.25 mmRain-ThunderstormLight Rain
1:41 AM18 °C16 °C88 %1012.5 hPa9.7 kmWSW (240°)11.1 km/h1.02 mmRainRain
1:53 AM17.8 °C15.6 °C87 %1011.9 hPa6.4 kmNW (310°)7.4 km/h2.29 mmRainRain
2:53 AM17.2 °C15 °C87 %1010.5 hPa16.1 kmSouth (180°)7.4 km/h1.27 mmOvercast
3:53 AM16.1 °C15 °C93 %1010.8 hPa16.1 kmWest (270°)7.4 km/hOvercast
4:53 AM16.1 °C15 °C93 %1010.8 hPa16.1 kmSW (230°)5.6 km/h0 mmOvercast
5:53 AM15.6 °C14.4 °C93 %1011.5 hPa16.1 kmSouth (180°)5.6 km/hMostly Cloudy
6:53 AM16.1 °C15 °C93 %1011.5 hPa16.1 kmSouth (190°)5.6 km/hMostly Cloudy
8:53 AM18.3 °C15.6 °C84 %1012.2 hPa16.1 kmWest (270°)7.4 km/hMostly Cloudy
9:17 AM19 °C16 °C83 %1012.2 hPa16.1 kmWest (280°)9.3 km/hOvercast
9:53 AM18.9 °C15 °C78 %1012.2 hPa16.1 kmWNW (300°)14.8 km/hOvercast
10:53 AM19.4 °C15 °C76 %1012.5 hPa16.1 kmNW (310°)7.4 km/hOvercast
12:53 PM18.9 °C14.4 °C75 %1012.5 hPa16.1 kmNW (320°)22.2 km/hOvercast
1:32 PM20 °C14 °C68 %1012.5 hPa16.1 kmNNW (330°)24.1 km/hOvercast
1:53 PM19.4 °C13.9 °C70 %1012.9 hPa16.1 kmNW (310°)22.2 km/hMostly Cloudy
2:03 PM19 °C14 °C73 %1012.9 hPa16.1 kmNW (310°)22.2 km/hMostly Cloudy
2:28 PM19 °C14 °C73 %1013.2 hPa16.1 kmNW (320°)20.4 km/hOvercast
2:53 PM20 °C14.4 °C70 %1012.9 hPa16.1 kmNW (310°)20.4 km/hOvercast
3:53 PM18.9 °C13.9 °C73 %1012.9 hPa16.1 kmNW (320°)25.9 km/h38.9 km/hMostly Cloudy
4:37 PM17 °C13 °C77 %1013.5 hPa16.1 kmNW (320°)29.6 km/hOvercast
4:53 PM17.2 °C13.3 °C78 %1013.5 hPa16.1 kmNNW (330°)25.9 km/hOvercast
5:53 PM16.1 °C12.8 °C81 %1013.9 hPa16.1 kmNorth (360°)20.4 km/hOvercast
6:53 PM16.1 °C11.1 °C72 %1014.2 hPa16.1 kmNW (320°)22.2 km/h33.3 km/hOvercast
7:53 PM15 °C11.1 °C78 %1014.6 hPa16.1 kmNNW (340°)16.7 km/hOvercast
8:53 PM15 °C10.6 °C75 %1014.6 hPa16.1 kmNorth (350°)20.4 km/hOvercast
9:00 PM14 °C11 °C82 %1014.9 hPa16.1 kmNNW (340°)18.5 km/hOvercast
9:53 PM14.4 °C10.6 °C78 %1015.2 hPa16.1 kmNorth (360°)13 km/hOvercast
10:34 PM14 °C10 °C77 %1015.9 hPa16.1 kmNorth (350°)18.5 km/hOvercast
10:53 PM13.9 °C9.4 °C74 %1015.9 hPa16.1 kmNorth (350°)16.7 km/hOvercast
11:53 PM13.3 °C9.4 °C77 %1016.3 hPa16.1 kmNNW (340°)14.8 km/hOvercast
Hourly data recorded from KCPS, located 0 kilometers away from St. Louis - Saint Louis University, Missouri







STORIES FROM OUR PARTNERS